Montague, CA

12:10 AM PDT on July 25, 2017 (GMT -0700)
Siskiyou County

Weather History for KSIY - January, 2012

Change the Weather History Date:

Sunday, January 15, 2012

  Actual Average Record
Temperature  
Mean Temperature 29 °F 35 °F  
Max Temperature 41 °F 44 °F 58 °F (2010)
Min Temperature 16 °F 26 °F -2 °F (1950)
Degree Days  
Heating Degree Days 36 30  
Month to date heating degree days 453 450  
Since 1 July heating degree days 2680 2683  
Cooling Degree Days 0 0  
Month to date cooling degree days 0 0  
Year to date cooling degree days 0 0  
Moisture  
Dew Point 18 °F    
Average Humidity 65    
Maximum Humidity 88    
Minimum Humidity 40    
Precipitation  
Precipitation T in 0.06 in 1.69 in (1974)
Month to date precipitation T 1.47  
Year to date precipitation T 1.47  
Sea Level Pressure  
Sea Level Pressure 30.09 in    
Wind  
Wind Speed 7 mph (North)    
Max Wind Speed 21 mph    
Max Gust Speed 25 mph    
Visibility 10 miles    
Events Snow    
T = Trace of Precipitation, MM = Missing Value Source: NWS Daily Summary

Daily Weather History Graph

Daily Weather History Graph

Search for Another Location

Airport or City:

Trip Planner

Search our weather history database for the weather conditions in past years. The results will help you decide how hot, cold, wet, or windy it might be!

Date:

Astronomy

Jan. 15, 2012 Rise Set
Actual Time 7:34 AM PST 5:03 PM PST
Civil Twilight 7:04 AM PST 5:34 PM PST
Nautical Twilight 6:29 AM PST 6:08 PM PST
Astronomical Twilight 5:56 AM PST 6:42 PM PST
Moon No Moon Rise 10:48 AM PST (1/15)
Length of Visible Light 10h 30m
Length of Day
9h 28m
Waning Gibbous, 56% of the Moon is Illuminated
Jan 15
Waning Gibbous
Jan 16
Last Quarter
Jan 22
New
Jan 30
First Quarter
Feb 7
Full

Hourly Weather History & Observations

Time (PST) Temp. Windchill Dew Point Humidity Pressure Visibility Wind Dir Wind Speed Gust Speed Precip Events Conditions
12:53 AM 19.9 °F - 14.0 °F 78% 30.06 in 10.0 mi Calm Calm - N/A   Clear
1:53 AM 26.1 °F 18.4 °F 17.1 °F 69% 30.03 in 10.0 mi NE 6.9 mph - N/A   Clear
2:53 AM 32.0 °F 23.0 °F 24.1 °F 73% 30.04 in 10.0 mi NNE 11.5 mph - N/A   Clear
3:53 AM 28.9 °F 18.6 °F 24.1 °F 82% 30.04 in 10.0 mi North 12.7 mph - N/A   Clear
4:53 AM 30.9 °F 21.2 °F 25.0 °F 79% 30.06 in 10.0 mi NNE 12.7 mph - N/A   Clear
5:53 AM 30.9 °F 21.2 °F 24.1 °F 76% 30.09 in 10.0 mi North 12.7 mph - N/A   Clear
6:53 AM 23.0 °F 13.9 °F 19.9 °F 88% 30.10 in 10.0 mi NNE 8.1 mph - N/A   Clear
7:53 AM 23.0 °F 11.1 °F 19.0 °F 85% 30.11 in 10.0 mi NE 12.7 mph - N/A   Clear
8:53 AM 30.0 °F - 23.0 °F 75% 30.12 in 10.0 mi Calm Calm - N/A   Overcast
10:53 AM 39.0 °F 34.0 °F 17.1 °F 41% 30.11 in 10.0 mi WNW 6.9 mph - N/A   Clear
11:53 AM 37.9 °F 28.9 °F 17.1 °F 43% 30.09 in 10.0 mi West 16.1 mph - N/A   Overcast
12:53 PM 39.9 °F 31.8 °F 19.0 °F 43% 30.07 in 10.0 mi WNW 15.0 mph - N/A   Overcast
1:53 PM 37.9 °F 30.0 °F 15.1 °F 39% 30.06 in 10.0 mi NW 12.7 mph - N/A   Overcast
2:19 PM 37.4 °F 31.4 °F 19.4 °F 48% 29.98 in 10.0 mi NE 8.1 mph - N/A   Overcast
2:53 PM 37.0 °F 32.4 °F 17.1 °F 44% 30.04 in 10.0 mi NNE 5.8 mph - N/A   Overcast
3:53 PM 34.0 °F 23.0 °F 18.0 °F 52% 30.07 in 4.0 mi West 18.4 mph 24.2 mph 0.00 in Snow Light Snow
4:03 PM 32.0 °F 23.0 °F 21.2 °F 64% 29.99 in 6.0 mi West 11.5 mph 25.3 mph 0.00 in Snow Light Snow
4:53 PM 30.9 °F 26.2 °F 18.0 °F 59% 30.07 in 10.0 mi NE 4.6 mph - 0.00 in   Clear
5:53 PM 28.0 °F 24.2 °F 15.1 °F 58% 30.09 in 10.0 mi North 3.5 mph - N/A   Clear
6:53 PM 21.0 °F - 12.0 °F 68% 30.13 in 10.0 mi Calm Calm - N/A   Clear
7:53 PM 26.1 °F - 14.0 °F 60% 30.14 in 10.0 mi Calm Calm - N/A   Mostly Cloudy
8:53 PM 26.1 °F 21.9 °F 16.0 °F 66% 30.14 in 10.0 mi West 3.5 mph - N/A   Clear
9:53 PM 25.0 °F - 17.1 °F 72% 30.16 in 10.0 mi Calm Calm - N/A   Partly Cloudy
10:53 PM 19.0 °F 12.3 °F 12.0 °F 74% 30.19 in 10.0 mi East 4.6 mph - N/A   Clear
11:53 PM 21.0 °F - 15.1 °F 78% 30.19 in 10.0 mi Calm Calm - N/A   Clear